OBJECT P, 59111

Orbit data source: Space-Track

You're viewing an Uncataloged Satellite

Recently launched and/or uncataloged satellites may have evolving metadata. Metadata may include but not limited to: Owner, Maufacturer, Bus, Motor, and Mission.

OBJECT P, 59111 is a satellite in SSO that was launched on Mon, 04 Mar 2024 UTC via an FALCON 9 launch vehicle from the Air Force Western Test Range (AFWTR). Unknown objects in Earth's orbit typically refer to objects detected orbiting the Earth but have not yet been identified or cataloged. These objects could be anything from previously untracked satellites, spent rocket stages, debris from satellite collisions, or even natural meteoroids temporarily captured by Earth's gravity.

Loading next visibility...
Identifier
59111, 2024-043P
Orbit
SSO
Country
Flag of TBDTBD
Related business
None
Manufacturer
Unknown
Mission
Operational Civil Technology
Bus & Motor
Unknown
Mass
Unknown
Launch date (UTC)
2024-03-04 (2 years ago)
Launch vehicle
FALCON 9
Launch site
Air Force Western Test Range (AFWTR)
Object type
Unknown
Shape & HBR
Box, 0.1 m
Radar Cross Section
0.015 m², Small (<0.1 m²)

Expand to show TLE details & history
Last TLE update: 10 hours ago

TLE from 10 hours ago
0 OBJECT P
1 59111U 24043P   25297.62637072  .00152424  00000-0  13338-2 0  9996
2 59111  97.5188  78.7799 0007007 307.0537  53.0082 15.68399156 91857
Epoch: 2025-10-24T15:01Z
TLE epoch observation values (Epoch: 2025-10-24T15:01:58.430Z)
Latitude
-0.00006°
Longitude
-179.98212°
Altitude
363.792 km
Speed
7.693 km/s
True Right ascension
05h 15m 07s
True Declination
0° 00' 00"
Sunlit
Object was in full shadow at epoch
Visualization orbit readout
Latitude
Unknown
Longitude
Unknown
Altitude
Unknown
Speed
Unknown
Apparent Right ascension
Unknown
Apparent Declination
Unknown
Sunlit
N/A
Visualization observer readout
Local Sidereal Time
20:18:16
Azimuth
Unknown
Elevation
Unknown
Doppler factor
Unknown
Orbital elements
Apogee altitude
365.109 km
Perigee altitude
355.665 km
Semi-major axis
6,738.524 km
Eccentricity
0.0007
Inclination
97.5188°
RAAN
78.7799°
Arg. of periapsis
307.0537°
True anomaly
53.07237°
Mean anomaly
53.0082°
Eccentric anomaly
53.04028°
Mean motion
3.9237 °/min
Orbital period
91.75 mins
BSTAR
0.0013338
Loading maneuver chart data...
Computing Atmospheric mass density...
Loading historical data...
Loading historical data...
Loading historical data...
Loading historical data...
Loading historical data...
Loading historical data...
Loading historical data...

Documentation

Showing up to 5 results
|